SCP
0 0 0 0 0 0 0 0 0 0 0 0 0 0 0 0 0 0 0 0 0 0 0 0 0 0 0 0 0 0 0 0 0 0 0 0 0 0 0 0 0 0 0
0 0 0 0 0 0 0 0 0 0 0 0 0 0 0 0 0 0 0 0 0 0 0 0 0 0 0 0 0 0 0 0 0 0 0 0 0 0 0 0 0 0 0
0 0 0 0 0 0 0 0 0 0 0 0 0 0 0 0 0 0 0 0 0 0 0 0 0 0 0 0 0 0 0 0 0 0 0 0 0 0 0 0 0 0 0
0 0 0 0 0 0 0 0 0 0 0 0 0 0 0 0 0 0 0 0 0 0 0 0 0 0 0 0 0 0 0 0 0 0 0 0 0 0 0 0 0 0 0
0 0 0 0 0 0 0 0 0 0 0 0 0 0 0 0 0 0 0 0 0 0 0 0 0 0 0 0 0 0 0 0 0 0 0 0 0 0 0 0 0 0 0
0 0 0 0 0 0 0 0 0 0 0 0 0 0 0 0 0 0 0 0 0 0 0 0 0 0 0 0 0 0 0 0 0 0 0 0 0 0 0 0 0 0 0
0 0 0 0 0 0 0 0 0 0 0 0 0 0 0 0 0 0 0 0 0 0 0 0 0 0 0 0 0 0 0 0 0 0 0 0 0 0 0 0 0 0 0
0 0 0 0 0 0 0 0 0 0 0 0 0 0 0 0 0 0 0 0 0 0 0 0 0 0 0 0 0 0 0 0 0 0 0 0 0 0 0 0 0 0 0
0 0 0 0 0 0 0 0 0 0 0 0 0 0 0 0 0 0 0 0 0 0 0 0 0 0 0 0 0 0 0 0 0 0 0 0 0 0 0 0 0 0 0
0 0 0 0 0 0 0 0 0 0 0 0 0 0 0 0 0 0 0 0 0 0 0 0 0 0 0 0 0 0 0 0 0 0 0 0 0 0 0 0 0 0 0
0 0 0 0 0 0 0 0 0 0 0 0 0 0 0 0 0 0 0 0 0 0 0 0 0 0 0 0 0 0 0 0 0 0 0 0 0 0 0 0 0 0 0
0 0 0 0 0 0 0 0 0 0 0 0 0 0 0 0 0 0 0 0 0 0 0 0 0 0 0 0 0 0 0 0 0 0 0 0 0 0 0 0 0 0 0
0 0 0 0 0 0 0 0 0 0 0 0 0 0 0 0 0 0 0 0 0 0 0 0 0 0 0 0 0 0 0 0 0 0 0 0 0 0 0 0 0 0 0
0 0 0 0 0 0 0 0 0 0 0 0 0 0 0 0 0 0 0 0 0 0 0 0 0 0 0 0 0 0 0 0 0 0 0 0 0 0 0 0 0 0 0
0 0 0 0 0 0 0 0 0 0 0 0 0 0 0 0 0 0 0 0 0 0 0 0 0 0 0 0 0 0 0 0 0 0 0 0 0 0 0 0 0 0 0
0 0 0 0 0 0 0 0 0 0 0 0 0 0 0 0 0 0 0 0 0 0 0 0 0 0 0 0 0 0 0 0 0 0 0 0 0 0 0 0 0 0 0
0 0 0 0 0 0 0 0 0 0 0 0 0 0 0 0 0 0 0 0 0 0 0 0 0 0 0 0 0 0 0 0 0 0 0 0 0 0 0 0 0 0 0
0 0 0 0 0 0 0 0 0 0 0 0 0 0 0 0 0 0 0 0 0 0 0 0 0 0 0 0 0 0 0 0 0 0 0 0 0 0 0 0 0 0 0
0 0 0 0 0 0 0 0 0 0 0 0 0 0 0 0 0 0 0 0 0 0 0 0 0 0 0 0 0 0 0 0 0 0 0 0 0 0 0 0 0 0 0
0 0 0 0 0 0 0 0 0 0 0 0 0 0 0 0 0 0 0 0 0 0 0 0 0 0 0 0 0 0 0 0 0 0 0 0 0 0 0 0 0 0 0
0 0 0 0 0 0 0 0 0 0 0 0 0 0 0 0 0 0 0 0 0 0 0 0 0 0 0 0 0 0 0 0 0 0 0 0 0 0 0 0 0 0 0
0 0 0 0 0 0 0 0 0 0 0 0 0 0 0 0 0 0 0 0 0 0 0 0 0 0 0 0 0 0 0 0 0 0 0 0 0 0 0 0 0 0 0
0 0 0 0 0 0 0 0 0 0 0 0 0 0 0 0 0 0 0 0 0 0 0 0 0 0 0 0 0 0 0 0 0 0 0 0 0 0 0 0 0 0 0
0 0 0 0 0 0 0 0 0 0 0 0 0 0 0 0 0 0 0 0 0 0 0 0 0 0 0 0 0 0 0 0 0 0 0 0 0 0 0 0 0 0 0
0 0 0 0 0 0 0 0 0 0 0 0 0 0 0 0 0 0 0 0 0 0 0 0 0 0 0 0 0 0 0 0 0 0 0 0 0 0 0 0 0 0 0
0 0 0 0 0 0 0 0 0 0 0 0 0 0 0 0 0 0 0 0 0 0 0 0 0 0 0 0 0 0 0 0 0 0 0 0 0 0 0 0 0 0 0
Wind_Speed
5 5 6 6 7 7 7 7 7 7 7 8 7 7 7 6 6 6 6 5 6 5 4 5 4 3 3 2 2 2 1 0 4 4 2 3 4 5 6 5 5 6 7
4 4 5 5 6 7 7 7 7 8 7 7 8 8 7 7 6 7 6 6 6 6 5 5 4 3 4 3 2 2 1 1 2 5 4 3 4 5 6 6 6 6 5
5 5 5 5 6 7 7 7 8 8 8 8 8 8 8 7 6 6 6 6 6 6 5 5 4 4 4 2 2 2 1 1 1 3 5 3 4 4 6 6 6 5 6
5 6 6 5 6 7 7 7 8 8 9 9 8 8 8 7 7 7 7 7 7 6 5 5 4 4 3 2 2 1 1 1 2 3 5 5 4 5 4 6 8 5 6
6 6 6 6 6 7 8 8 8 8 8 9 9 8 7 6 6 7 7 7 7 6 5 4 4 3 3 2 1 1 1 1 2 3 4 5 5 6 7 6 9 9 7
7 6 6 7 7 7 8 8 9 9 8 8 8 9 7 5 10 12 9 7 6 6 5 4 3 3 2 3 3 2 2 2 3 3 4 6 8 7 7 8 9 10 8
7 7 7 7 8 7 8 8 9 8 8 8 8 8 8 8 12 12 11 7 6 5 4 3 2 2 1 0 1 3 3 5 6 4 6 7 8 8 9 10 8 9 10
8 8 8 8 8 8 8 8 8 7 8 7 7 7 7 8 11 11 11 7 5 4 3 3 2 1 0 1 1 2 2 3 5 3 4 6 7 7 7 7 9 9 8
9 9 9 9 10 9 9 8 7 7 7 6 6 7 7 7 10 11 10 5 4 4 3 2 2 1 2 4 2 3 4 4 6 8 9 10 13 13 10 5 5 7 8
10 9 8 9 10 10 9 8 6 7 7 7 7 5 6 5 8 10 9 4 4 3 2 1 1 1 3 4 1 2 4 5 4 5 6 8 7 8 10 5 4 5 6
8 9 8 8 8 9 8 7 8 7 8 7 7 5 4 4 6 8 7 3 3 3 2 1 1 3 4 5 4 2 5 6 3 4 5 5 4 4 4 4 4 5 6
9 9 8 8 7 7 9 8 7 8 8 7 6 5 3 2 3 5 6 5 4 3 2 1 2 4 4 5 3 5 7 5 2 3 4 4 4 4 4 5 5 5 6
10 9 8 8 7 7 9 9 7 6 6 6 6 5 4 2 2 5 5 5 4 2 2 2 2 3 3 2 4 5 3 2 2 3 4 4 4 4 5 5 5 5 6
10 9 8 8 7 6 5 6 7 7 7 6 6 5 5 4 3 3 2 2 3 2 1 0 1 2 1 2 2 2 2 1 2 3 4 4 4 4 4 4 4 5 5
9 8 8 7 7 6 5 4 5 4 6 7 7 7 7 6 7 8 5 4 3 2 2 1 0 0 1 1 1 1 1 1 2 2 3 4 4 4 4 3 3 3 4
9 8 7 6 6 6 6 4 4 4 5 7 7 7 4 6 8 9 8 6 6 5 3 2 2 2 2 2 2 2 2 2 2 2 3 3 4 4 5 3 3 3 4
8 8 6 7 7 7 7 7 6 4 5 6 8 9 7 8 9 9 8 6 6 5 3 3 3 3 3 3 3 2 2 2 2 3 3 3 4 4 4 4 3 3 4
6 7 7 6 7 7 7 6 6 7 6 3 4 7 9 9 9 8 8 6 3 3 3 3 4 3 3 3 2 2 3 2 2 3 3 3 3 3 4 4 3 4 4
5 5 5 5 5 5 5 5 5 5 5 4 2 3 5 7 8 8 7 4 5 4 4 4 3 3 3 3 3 3 3 3 3 3 3 3 3 3 3 4 4 4 4
4 6 6 5 5 5 5 5 5 5 5 5 6 5 4 4 4 5 4 4 4 4 4 4 4 4 3 3 3 3 3 3 3 3 4 4 3 3 4 4 4 4 4
4 5 6 5 5 5 6 6 6 6 6 6 6 7 11 6 6 6 5 5 5 5 5 4 4 4 4 3 3 4 4 4 4 4 4 4 3 3 3 4 4 4 4
4 4 5 5 5 5 5 5 5 6 6 6 4 5 11 5 5 5 5 5 5 5 4 4 4 4 5 5 5 5 5 5 4 4 4 4 4 4 3 3 3 3 3
4 4 4 4 4 5 5 5 5 6 6 6 5 5 6 6 6 6 6 5 5 4 4 4 5 5 4 5 5 5 6 6 5 5 5 4 4 4 4 4 4 4 4
4 5 5 5 5 5 6 6 6 6 6 6 6 6 7 6 6 6 6 5 5 5 5 5 6 7 8 6 5 5 5 6 5 5 6 6 5 4 4 4 5 5 5
5 5 5 5 6 6 6 6 6 7 6 6 6 6 6 6 6 6 5 5 6 6 7 6 5 6 8 9 8 6 8 10 8 6 5 5 6 6 5 5 5 4 4
5 5 5 5 6 6 6 6 7 7 7 7 6 6 6 6 6 6 5 5 6 6 6 6 7 8 8 8 9 10 10 11 10 9 6 5 6 6 6 5 6 5 5
Wind_Direction
176 177 176 175 170 164 163 162 156 149 149 145 143 138 133 127 126 124 119 120 118 110 103 106 99 90 87 72 65 62 45 324 272 292 307 336 331 326 324 322 318 315 318
157 155 157 151 150 151 150 148 145 141 138 135 134 129 125 123 122 124 123 120 121 116 108 103 97 91 83 71 66 60 41 9 300 298 307 319 314 315 313 315 317 317 308
141 140 139 141 143 143 140 138 136 134 128 125 127 127 125 121 117 114 117 114 110 108 107 106 104 100 90 75 70 60 29 356 324 296 302 299 299 308 317 312 305 303 303
140 140 141 142 138 134 131 131 129 131 129 125 120 120 119 116 114 114 113 110 105 100 98 101 102 102 105 98 83 57 6 332 309 299 298 303 302 308 316 322 323 319 311
142 140 138 127 122 123 124 122 120 119 121 122 120 115 112 114 119 121 117 115 112 106 98 94 96 96 91 89 86 31 347 324 317 312 310 313 316 328 330 324 318 318 308
146 141 133 128 125 125 126 125 122 119 119 120 122 123 118 116 124 121 119 116 115 114 111 102 97 89 75 55 31 3 342 321 311 304 306 310 314 317 317 317 317 321 318
146 143 142 139 134 133 131 128 128 127 124 122 121 121 120 124 124 120 116 117 117 117 119 118 109 95 94 78 337 336 322 312 306 297 295 300 305 310 310 310 309 306 301
152 152 151 147 141 138 135 133 132 129 129 125 123 121 118 124 126 124 121 114 113 115 119 124 128 131 259 308 291 300 291 292 302 297 275 285 291 295 293 298 302 300 289
165 164 161 154 149 148 146 142 137 132 126 122 125 126 124 128 132 131 125 120 120 122 126 130 143 184 299 332 337 312 307 298 310 312 308 309 312 314 316 314 312 312 308
174 165 157 155 155 154 147 140 131 130 127 124 122 121 125 131 141 138 131 127 131 133 135 147 190 247 305 325 325 302 301 304 311 316 315 316 315 314 319 312 301 300 302
149 145 147 151 150 144 136 133 133 128 124 121 121 117 117 125 145 144 144 139 147 150 166 185 243 295 310 316 318 290 298 316 317 309 306 306 310 312 312 308 295 285 286
140 143 145 144 142 140 136 133 133 134 131 130 127 123 114 115 138 153 155 153 150 156 182 204 252 295 309 316 321 322 329 338 328 315 310 309 313 313 310 304 293 283 273
140 143 142 137 136 142 144 144 140 141 142 146 148 150 154 150 167 166 169 166 164 160 190 227 272 298 320 332 331 338 353 346 318 306 302 301 302 300 303 303 297 293 285
144 145 146 144 141 139 143 150 153 158 156 156 161 164 163 169 183 183 175 174 178 178 171 215 301 305 319 339 340 343 348 320 297 291 296 301 305 307 307 309 309 316 310
143 145 148 148 149 147 143 155 159 166 174 170 174 169 170 186 198 188 174 181 179 179 136 89 53 340 297 299 302 296 299 310 298 294 296 299 302 304 304 309 303 309 300
149 154 156 154 152 150 146 131 154 160 173 175 171 166 178 184 179 187 191 193 190 178 149 176 208 219 234 244 258 272 269 274 285 293 291 291 297 300 302 303 301 299 299
160 161 160 161 161 161 162 160 157 156 174 176 177 180 182 180 183 188 190 189 189 180 183 202 214 220 229 236 242 250 261 267 276 279 281 285 289 291 295 299 301 301 298
159 163 165 168 168 169 172 173 169 169 172 187 198 197 190 190 191 192 189 170 182 186 199 209 217 220 225 231 237 247 260 267 266 271 275 278 281 284 288 289 290 290 295
163 165 163 161 165 167 167 167 170 177 179 175 171 199 199 198 197 202 189 183 196 207 209 215 216 215 222 226 235 242 250 258 263 266 265 265 267 271 275 278 280 283 286
167 165 161 161 163 166 170 175 180 184 185 186 195 192 172 165 190 202 198 197 204 211 210 214 216 216 218 221 227 233 244 252 255 254 256 258 256 255 264 269 269 274 276
166 166 164 166 178 181 183 189 190 190 196 201 204 198 193 192 201 203 204 207 209 213 212 213 215 216 218 219 222 228 236 245 245 247 251 252 252 253 254 258 262 263 270
170 172 178 184 184 187 190 190 190 196 202 204 201 210 213 201 205 210 213 216 216 214 209 208 216 216 212 212 215 222 232 240 240 240 245 248 247 247 250 252 254 260 261
177 180 184 188 187 188 189 193 198 202 205 205 200 202 208 208 210 215 219 218 214 214 210 208 219 227 224 220 215 216 226 234 232 228 235 243 242 238 236 242 247 253 255
188 192 195 194 193 197 200 203 205 207 207 206 206 209 212 213 215 220 220 217 217 218 215 214 220 228 230 230 226 224 230 235 229 227 226 234 237 234 232 236 240 241 247
196 201 204 204 204 207 209 210 211 211 210 211 211 213 214 214 218 222 220 216 218 224 225 222 223 228 233 234 233 233 240 246 239 224 219 223 229 228 229 234 236 237 237
208 211 213 211 212 212 213 216 217 215 215 215 215 215 214 215 218 220 217 215 220 226 229 227 227 230 235 237 240 242 243 246 241 231 216 215 220 225 221 228 230 231 233